Tracking 28790 objects as of 19-Apr-2024
HD Live streaming from Space Station
objects crossing your sky now

SL-8 DEB

Track SL-8 DEB now!
10-day predictions


NORAD ID: 8756
Int'l Code: 1974-071C
Perigee: 608.6 km
Apogee: 615.7 km
Inclination: 74.1 °
Period: 96.8 minutes
Semi major axis: 6983 km
RCS: 0.0149 m2 (small)
Launch date: September 11, 1974
Source: Commonwealth of Independent States (former USSR) (CIS)
Launch site: PLESETSK MISSILE AND SPACE COMPLEX (PKMTR)

Note: This is SATELLITE DEBRIS
Your satellite tracking list
Your tracking list is empty




NASA's NSSDC Master Catalog

Two Line Element Set (TLE):
1 08756U 74071C   24109.18836634  .00019553  00000-0  21409-2 0  9991
2 08756  74.0519  31.0853 0005102 249.9970 110.0662 14.87739577772035
Source of the keplerian elements: AFSPC